Almeria, Spain

3:52 AM CEST on August 17, 2018 (GMT +0200)
Almeria

Weather History for LEAM - August, 2018

Change the Weather History Date:

Friday, August 10, 2018

  Actual Average Record
Temperature  
Mean Temperature 84 °F -  
Max Temperature 95 °F 81 °F 96 °F (1998)
Min Temperature 72 °F 69 °F 66 °F (1999)
Cooling Degree Days 18    
Growing Degree Days 34 (Base 50)    
Moisture  
Dew Point 67 °F    
Average Humidity 59    
Maximum Humidity 89    
Minimum Humidity 22    
Precipitation  
Precipitation 0.00 in 0.01 in - ()
Sea Level Pressure  
Sea Level Pressure 30.03 in    
Wind  
Wind Speed 8 mph ()    
Max Wind Speed 24 mph    
Max Gust Speed 32 mph    
Visibility 6.2 miles    
Events      
Averages and records for this station are not official NWS values.
T = Trace of Precipitation, MM = Missing Value Source: Averaged Metar Reports

Daily Weather History Graph

Daily Weather History Graph

Search for Another Location

Airport or City:

Astronomy

Aug. 10, 2018 Rise Set
Actual Time 7:22 AM CEST 9:06 PM CEST
Civil Twilight 6:54 AM CEST 9:34 PM CEST
Nautical Twilight 6:20 AM CEST 10:08 PM CEST
Astronomical Twilight 5:44 AM CEST 10:44 PM CEST
Moon 6:01 AM CEST (8/10) 8:35 PM CEST (8/10)
Length of Visible Light 14h 40m
Length of Day
13h 44m
Waning Crescent, 2% of the Moon is Illuminated
Aug 10
Waning Crescent
Aug 11
New
Aug 18
First Quarter
Aug 26
Full
Sep 3
Last Quarter

Hourly Weather History & Observations

Time (CEST) Temp. Heat Index Dew Point Humidity Pressure Visibility Wind Dir Wind Speed Gust Speed Precip Events Conditions
12:00 AM 75.2 °F - 69.8 °F 83% 29.98 in 6.2 mi WSW 4.6 mph - N/A   Unknown
12:30 AM 75.2 °F - 69.8 °F 83% 29.98 in 6.2 mi Calm Calm - N/A   Unknown
1:00 AM 76 °F - 72 °F 84% 30.00 in - SSW 5.8 mph - -  
1:00 AM 75.2 °F - 71.6 °F 89% 29.98 in 6.2 mi SW 5.8 mph - N/A   Unknown
1:30 AM 75.2 °F - 71.6 °F 89% 30.01 in 6.2 mi SW 4.6 mph - N/A   Unknown
2:00 AM 75 °F - 71 °F 83% 30.00 in - NNW 4.6 mph - -  
2:30 AM 73.4 °F - 69.8 °F 88% 29.98 in 6.2 mi ENE 3.5 mph - N/A   Partly Cloudy
3:00 AM 74 °F - 71 °F 88% 30.00 in - WSW 1.2 mph - -  
3:00 AM 75.2 °F - 69.8 °F 83% 30.01 in 6.2 mi Variable 1.2 mph - N/A   Mostly Cloudy
3:30 AM 75.2 °F - 69.8 °F 83% 29.98 in 6.2 mi Variable 2.3 mph - N/A   Mostly Cloudy
4:00 AM 74 °F - 71 °F 88% 30.00 in - North 2.3 mph - -  
4:00 AM 75.2 °F - 69.8 °F 83% 30.01 in 6.2 mi Variable 2.3 mph - N/A   Unknown
4:30 AM 75.2 °F - 69.8 °F 83% 30.01 in 6.2 mi NE 3.5 mph - N/A   Scattered Clouds
5:00 AM 73.4 °F - 69.8 °F 88% 30.01 in - NE 3.5 mph - N/A   Clear
5:30 AM 73.4 °F - 69.8 °F 88% 30.01 in - NE 3.5 mph - N/A   Clear
6:00 AM 73 °F - 69 °F 84% 30.01 in - North 3.5 mph - -  
6:00 AM 73.4 °F - 68.0 °F 83% 30.01 in - North 3.5 mph - N/A   Clear
6:30 AM 73.4 °F - 68.0 °F 83% 30.01 in - NNW 3.5 mph - N/A   Clear
7:00 AM 73 °F - 69 °F 82% 30.03 in - North 5.8 mph - -  
7:00 AM 73.4 °F - 68.0 °F 83% 30.01 in - North 4.6 mph - N/A   Clear
7:30 AM 75.2 °F - 66.2 °F 73% 30.04 in - NNE 3.5 mph - N/A   Clear
8:00 AM 74 °F - 68 °F 75% 30.04 in 25 mi East 2.3 mph - -   Scattered Clouds
8:00 AM 75.2 °F - 66.2 °F 73% 30.04 in 6.2 mi Variable 2.3 mph - N/A   Partly Cloudy
8:30 AM 77.0 °F - 64.4 °F 65% 30.04 in 6.2 mi NE 5.8 mph - N/A   Partly Cloudy
9:00 AM 82 °F - 64 °F 44% 30.05 in - NNE 6.9 mph - -  
9:00 AM 80.6 °F 81.8 °F 62.6 °F 54% 30.04 in 6.2 mi NNE 6.9 mph - N/A   Partly Cloudy
9:30 AM 84.2 °F 85.0 °F 62.6 °F 48% 30.04 in 6.2 mi NE 3.5 mph - N/A   Partly Cloudy
10:00 AM 86 °F - 65 °F 41% 30.05 in - SSW 2.3 mph - -  
10:00 AM 84.2 °F 85.6 °F 64.4 °F 51% 30.04 in 6.2 mi Variable 1.2 mph - N/A   Partly Cloudy
10:30 AM 86.0 °F 88.2 °F 66.2 °F 51% 30.04 in 6.2 mi Variable 3.5 mph - N/A   Partly Cloudy
11:00 AM 89 °F - 65 °F 35% 30.05 in 25 mi North 5.8 mph - -   Scattered Clouds
11:00 AM 87.8 °F 89.4 °F 64.4 °F 46% 30.04 in 6.2 mi Variable 4.6 mph - N/A   Partly Cloudy
11:30 AM 91.4 °F 91.4 °F 60.8 °F 36% 30.04 in - ENE 20.7 mph - N/A   Clear
12:00 PM 91.4 °F 92.1 °F 62.6 °F 38% 30.06 in - ENE 23.0 mph - N/A   Clear
12:30 PM 91.4 °F 93.2 °F 64.4 °F 41% 30.06 in - ENE 24.2 mph - N/A   Clear
1:00 PM 93 °F - 66 °F 32% 30.06 in - ENE 23.0 mph - -  
1:00 PM 93.2 °F 94.9 °F 64.4 °F 38% 30.06 in - ENE 20.7 mph - N/A   Clear
1:30 PM 91.4 °F 95.4 °F 68.0 °F 46% 30.06 in - East 24.2 mph - N/A   Clear
2:00 PM 93 °F - 68 °F 35% 30.06 in 25 mi East 21.9 mph - -   Scattered Clouds
2:00 PM 91.4 °F 94.0 °F 66.2 °F 43% 30.06 in 6.2 mi East 21.9 mph - N/A   Partly Cloudy
2:30 PM 91.4 °F 93.2 °F 64.4 °F 41% 30.06 in 6.2 mi East 20.7 mph - N/A   Partly Cloudy
3:00 PM 94 °F - 67 °F 32% 30.06 in - East 20.7 mph - -  
3:00 PM 93.2 °F 96.2 °F 66.2 °F 41% 30.06 in 6.2 mi East 20.7 mph - N/A   Partly Cloudy
3:30 PM 93.2 °F 96.2 °F 66.2 °F 41% 30.04 in 6.2 mi East 20.7 mph 32.2 mph N/A   Partly Cloudy
4:00 PM 95 °F - 69 °F 34% 30.05 in - East 20.7 mph - -  
4:00 PM 93.2 °F 98.8 °F 69.8 °F 46% 30.04 in 6.2 mi East 20.7 mph - N/A   Partly Cloudy
4:30 PM 93.2 °F 97.7 °F 68.0 °F 44% 30.04 in 6.2 mi East 17.3 mph 28.8 mph N/A   Partly Cloudy
5:30 PM 95.0 °F 98.5 °F 66.2 °F 39% 30.04 in 6.2 mi East 20.7 mph - N/A   Partly Cloudy
6:00 PM 95.0 °F 96.0 °F 62.6 °F 34% 30.01 in - East 21.9 mph - N/A   Clear
6:30 PM 95.0 °F 96.0 °F 62.6 °F 34% 30.01 in - ENE 23.0 mph - N/A   Clear
7:00 PM 94 °F - 59 °F 22% 30.02 in - ENE 21.9 mph - -  
7:00 PM 93.2 °F 92.6 °F 59.0 °F 32% 30.01 in - ENE 20.7 mph - N/A   Clear
7:30 PM 93.2 °F 92.6 °F 59.0 °F 32% 30.01 in - East 20.7 mph - N/A   Clear
8:00 PM 92 °F - 60 °F 25% 30.02 in 31 mi ENE 21.9 mph - -   Clear
8:00 PM 91.4 °F 89.9 °F 57.2 °F 31% 30.01 in - East 20.7 mph - N/A   Clear
8:30 PM 87.8 °F 91.4 °F 68.0 °F 52% 30.04 in - ENE 23.0 mph - N/A   Clear
9:00 PM 85 °F - 72 °F 56% 30.05 in - ENE 24.2 mph - -  
9:00 PM 86.0 °F 91.8 °F 71.6 °F 62% 30.04 in 6.2 mi ENE 23.0 mph - N/A   Partly Cloudy
9:30 PM 84.2 °F 90.9 °F 73.4 °F 70% 30.06 in 6.2 mi ENE 20.7 mph - N/A   Partly Cloudy
10:00 PM 84.2 °F 90.9 °F 73.4 °F 70% 30.09 in 6.2 mi ENE 16.1 mph - N/A   Partly Cloudy
10:30 PM 84.2 °F 90.9 °F 73.4 °F 70% 30.09 in 6.2 mi ENE 16.1 mph - N/A   Partly Cloudy
11:30 PM 84.2 °F 89.6 °F 71.6 °F 66% 30.12 in 6.2 mi NE 17.3 mph - N/A   Unknown